Location: London
(42.9830°N, 81.2500°W)
Time: 08:55:30
(UTC-04:00)

Amateur Radio Satellites - All Passes

Search period start: 25 July 2014 08:25
Search period end: 26 July 2014 08:25
Location: London, 42.9830°N, 81.2500°W

Satellite Date Start Highest point End Downlink Frequencies (MHz)
Time Altitude Azimuth
ISS 25 Jul 08:37:09 08:40:20 40° 220° (SW) 08:43:30 145.800 FM
AO-7 25 Jul 08:45:51 08:50:03 15° 316° (NW) 08:54:14 29.400 - 29.500 MHz
JAS-2 25 Jul 08:56:20 09:01:51 33° 296° (WNW) 09:06:49 435.800 - 435.900 CW/SSB, 435.910 FM
Saudisat 1A 25 Jul 08:56:28 09:00:29 35° 116° (ESE) 09:04:31 436.775 MHz
MaSat-1 25 Jul 09:31:05 09:35:15 24° 256° (WSW) 09:39:16 437.345 MHz
SO-67 25 Jul 09:50:21 09:52:04 13° 294° (WNW) 09:53:47 435.3500 MHz FM
Sapphire 25 Jul 09:50:44 09:54:20 18° 40° (NE) 09:57:55 437.095 MHz 1200 baud AX-25 AFSK
UKube-1 25 Jul 09:59:09 10:02:35 22° 95° (E) 10:05:59 145.840 MHz, 145.915 MHz
KITSAT 1 25 Jul 10:09:55 10:16:32 27° 324° (NW) 10:23:12 435.175 FM
HO-68 25 Jul 10:14:44 10:21:41 52° 101° (E) 10:28:35 435.675 MHz FM
PCSat 25 Jul 10:24:01 10:28:46 30° 48° (NE) 10:33:28 145.825 MHz
Saudisat 1A 25 Jul 10:36:13 10:40:06 29° 314° (NW) 10:44:01 436.775 MHz
Oscar 11 25 Jul 10:48:24 10:52:29 39° 98° (E) 10:56:33 145.825 FM, Beacon 2401.500 USB
FUNcube-1 25 Jul 10:58:59 11:01:54 18° 93° (E) 11:04:48 145.950 - 145.970 MHz USB
Sapphire 25 Jul 11:33:06 11:38:34 87° 60° (ENE) 11:43:59 437.095 MHz 1200 baud AX-25 AFSK
UKube-1 25 Jul 11:34:54 11:38:52 34° 291° (WNW) 11:42:47 145.840 MHz, 145.915 MHz
HO-68 25 Jul 12:02:54 12:09:07 34° 299° (WNW) 12:15:19 435.675 MHz FM
PCSat 25 Jul 12:07:11 12:12:22 47° 247° (WSW) 12:17:31 145.825 MHz
KITSAT 1 25 Jul 12:11:43 12:15:22 13° 354° (N) 12:19:02 435.175 FM
Oscar 11 25 Jul 12:25:14 12:28:25 20° 295° (WNW) 12:31:35 145.825 FM, Beacon 2401.500 USB
FUNcube-1 25 Jul 12:34:36 12:38:27 38° 289° (WNW) 12:42:19 145.950 - 145.970 MHz USB
Oscar 19 25 Jul 12:57:02 13:00:43 20° 62° (ENE) 13:04:24 437.125 CW, 437.150 USB
JAS-1B 25 Jul 12:57:56 13:03:16 17° 45° (NE) 13:08:49 435.800 - 435.900 CW/SSB
RS-15 25 Jul 13:14:49 13:22:54 24° 102° (ESE) 13:30:49 29.354 - 29.394 USB, Beacon 29.352 USB
Sapphire 25 Jul 13:18:48 13:21:11 13° 257° (WSW) 13:23:34 437.095 MHz 1200 baud AX-25 AFSK
Oscar 16 25 Jul 13:23:31 13:28:09 36° 68° (ENE) 13:32:48 437.025 USB, Beacon 2401.1428
ITAMSAT 1 25 Jul 13:36:46 13:40:47 23° 63° (ENE) 13:44:48 435.822 SSB
AO-Echo 25 Jul 13:44:09 13:48:33 27° 65° (ENE) 13:52:58 ?
AO-27 25 Jul 13:54:10 13:58:46 33° 66° (ENE) 14:03:24 436.795 MHz FM
Gurwin Techsat 1B 25 Jul 13:56:05 13:58:59 15° 59° (ENE) 14:01:53 435.225 FM
Uribyol 2 25 Jul 13:56:26 14:01:07 35° 67° (ENE) 14:05:49 436.500 FM
KITSAT 1 25 Jul 14:09:19 14:14:45 19° 25° (NNE) 14:20:09 435.175 FM
AO-7 25 Jul 14:12:28 14:15:20 12° 40° (NE) 14:18:11 29.400 - 29.500 MHz
SO-50 25 Jul 14:26:07 14:30:34 83° 123° (ESE) 14:35:09 436.795 FM
Oscar 19 25 Jul 14:34:40 14:39:39 54° 260° (W) 14:44:41 437.125 CW, 437.150 USB
JAS-1B 25 Jul 14:43:07 14:51:38 60° 67° (ENE) 15:01:12 435.800 - 435.900 CW/SSB
Oscar 16 25 Jul 15:03:08 15:07:32 29° 265° (W) 15:11:58 437.025 USB, Beacon 2401.1428
UOSAT-12 25 Jul 15:10:26 15:13:35 19° 110° (ESE) 15:16:48 437.025 FM, 437.400 FM
TMSAT-1 25 Jul 15:11:24 15:16:29 48° 70° (ENE) 15:21:34 436.925 FM
ITAMSAT 1 25 Jul 15:14:54 15:19:57 49° 260° (W) 15:25:01 435.822 SSB
AO-Echo 25 Jul 15:22:05 15:27:04 42° 262° (W) 15:32:08 ?
RS-15 25 Jul 15:22:36 15:33:46 89° 303° (WNW) 15:44:46 29.354 - 29.394 USB, Beacon 29.352 USB
Gurwin Techsat 1B 25 Jul 15:32:56 15:38:15 82° 256° (WSW) 15:43:37 435.225 FM
AO-27 25 Jul 15:33:33 15:38:14 33° 263° (W) 15:42:57 436.795 MHz FM
Uribyol 2 25 Jul 15:36:04 15:40:36 30° 264° (W) 15:45:10 436.500 FM
Uosat F 25 Jul 15:38:27 15:42:13 22° 63° (ENE) 15:45:58 435.120 FM
AO-7 25 Jul 15:58:12 16:06:06 49° 62° (ENE) 16:14:00 29.400 - 29.500 MHz
KITSAT 1 25 Jul 16:04:17 16:12:13 54° 51° (NE) 16:20:04 435.175 FM
SO-50 25 Jul 16:08:48 16:11:45 17° 323° (NW) 16:14:44 436.795 FM
OPAL 25 Jul 16:15:50 16:18:10 13° 92° (E) 16:20:30 ?
JAS-1B 25 Jul 16:34:44 16:42:31 37° 269° (W) 16:51:16 435.800 - 435.900 CW/SSB
UOSAT-12 25 Jul 16:48:47 16:53:18 56° 308° (NW) 16:57:57 437.025 FM, 437.400 FM
TMSAT-1 25 Jul 16:52:32 16:56:38 23° 267° (W) 17:00:46 436.925 FM
Uosat F 25 Jul 17:15:45 17:20:38 50° 260° (W) 17:25:34 435.120 FM
Saudisat 1A 25 Jul 17:22:07 17:26:16 38° 49° (NE) 17:30:23 436.775 MHz
JAS-2 25 Jul 17:23:16 17:29:19 26° 60° (ENE) 17:35:05 435.800 - 435.900 CW/SSB, 435.910 FM
Hamsat 25 Jul 17:23:22 17:25:34 14° 63° (ENE) 17:27:47 145.90 MHz
RS-15 25 Jul 17:38:05 17:47:43 33° 330° (NNW) 17:57:22 29.354 - 29.394 USB, Beacon 29.352 USB
AO-7 25 Jul 17:51:13 17:58:57 41° 261° (W) 18:06:46 29.400 - 29.500 MHz
OPAL 25 Jul 17:52:32 17:57:35 77° 288° (WNW) 18:02:41 ?
KITSAT 1 25 Jul 18:00:06 18:07:21 38° 251° (WSW) 18:14:34 435.175 FM
UOSAT-12 25 Jul 18:32:41 18:34:31 12° 329° (NNW) 18:36:21 437.025 FM, 437.400 FM
SO-67 25 Jul 18:51:07 18:53:20 16° 67° (ENE) 18:55:34 435.3500 MHz FM
Hamsat 25 Jul 18:57:00 19:01:05 55° 260° (W) 19:05:13 145.90 MHz
Saudisat 1A 25 Jul 19:02:04 19:05:41 25° 247° (WSW) 19:09:15 436.775 MHz
JAS-2 25 Jul 19:05:49 19:13:41 76° 257° (WSW) 19:21:11 435.800 - 435.900 CW/SSB, 435.910 FM
OPAL 25 Jul 19:34:09 19:35:38 11° 306° (NW) 19:37:08 ?
RS-15 25 Jul 19:56:25 20:04:40 23° 5° (N) 20:13:00 29.354 - 29.394 USB, Beacon 29.352 USB
STRAND 1 25 Jul 20:09:30 20:14:36 66° 102° (ESE) 20:19:39 ?
SO-67 25 Jul 20:23:05 20:26:11 30° 263° (W) 20:29:18 435.3500 MHz FM
HO-68 25 Jul 20:44:11 20:50:51 43° 64° (ENE) 20:57:30 435.675 MHz FM
JAS-2 25 Jul 20:55:34 20:59:38 15° 274° (W) 21:03:38 435.800 - 435.900 CW/SSB, 435.910 FM
UKube-1 25 Jul 20:55:46 20:59:13 23° 66° (ENE) 21:02:41 145.840 MHz, 145.915 MHz
SO-50 25 Jul 21:17:16 21:20:24 17° 38° (NE) 21:23:34 436.795 FM
Oscar 11 25 Jul 21:44:25 21:48:20 35° 70° (ENE) 21:52:15 145.825 FM, Beacon 2401.500 USB
MaSat-1 25 Jul 21:47:24 21:49:48 15° 100° (E) 21:52:23 437.345 MHz
STRAND 1 25 Jul 21:50:00 21:53:15 17° 300° (WNW) 21:56:29 ?
FUNcube-1 25 Jul 21:56:46 21:59:45 19° 65° (ENE) 22:02:42 145.950 - 145.970 MHz USB
RS-15 25 Jul 22:10:43 22:21:01 42° 38° (NE) 22:31:33 29.354 - 29.394 USB, Beacon 29.352 USB
UKube-1 25 Jul 22:31:15 22:35:14 34° 262° (W) 22:39:16 145.840 MHz, 145.915 MHz
HO-68 25 Jul 22:31:57 22:38:33 39° 262° (W) 22:45:12 435.675 MHz FM
SO-50 25 Jul 22:56:50 23:01:36 87° 237° (WSW) 23:06:26 436.795 FM
Lituanica SAT-1 25 Jul 23:17:34 23:18:03 11° 135° (SE) 23:18:32 437.275 MHz beacon
Oscar 11 25 Jul 23:21:17 23:24:36 21° 266° (W) 23:27:56 145.825 FM, Beacon 2401.500 USB
MaSat-1 25 Jul 23:22:33 23:26:30 52° 302° (WNW) 23:31:06 437.345 MHz
FUNcube-1 25 Jul 23:31:42 23:35:52 43° 261° (W) 23:39:58 145.950 - 145.970 MHz USB
UOSAT-12 25 Jul 23:37:54 23:41:50 25° 43° (NE) 23:45:44 437.025 FM, 437.400 FM
RS-15 26 Jul 00:23:13 00:34:07 69° 243° (WSW) 00:45:26 29.354 - 29.394 USB, Beacon 29.352 USB
SO-50 26 Jul 00:40:18 00:41:27 11° 253° (WSW) 00:42:36 436.795 FM
Lituanica SAT-1 26 Jul 00:48:20 00:50:17 40° 331° (NNW) 00:52:16 437.275 MHz beacon
PCSat 26 Jul 01:08:04 01:11:51 20° 106° (ESE) 01:15:40 145.825 MHz
UOSAT-12 26 Jul 01:17:40 01:22:15 50° 242° (WSW) 01:26:45 437.025 FM, 437.400 FM
ISS 26 Jul 01:19:49 01:22:57 39° 139° (SE) 01:26:07 145.800 FM
Oscar 16 26 Jul 01:36:33 01:38:03 11° 88° (E) 01:39:33 437.025 USB, Beacon 2401.1428
Uribyol 2 26 Jul 02:10:54 02:12:02 11° 88° (E) 02:13:10 436.500 FM
Sapphire 26 Jul 02:15:35 02:20:56 69° 117° (ESE) 02:26:20 437.095 MHz 1200 baud AX-25 AFSK
Lituanica SAT-1 26 Jul 02:22:58 02:23:12 10° 349° (N) 02:23:25 437.275 MHz beacon
JAS-1B 26 Jul 02:30:26 02:36:35 19° 82° (E) 02:42:14 435.800 - 435.900 CW/SSB
RS-15 26 Jul 02:39:01 02:44:19 15° 264° (W) 02:49:44 29.354 - 29.394 USB, Beacon 29.352 USB
Oscar 19 26 Jul 02:45:11 02:50:13 50° 100° (E) 02:55:13 437.125 CW, 437.150 USB
AO-40 26 Jul 02:46:01 04:31:39 23° 216° (SW) 07:55:35 Beacon 2401.320
PCSat 26 Jul 02:49:25 02:54:46 62° 304° (WNW) 03:00:10 145.825 MHz
ISS 26 Jul 02:56:36 02:59:43 35° 337° (NNW) 03:02:51 145.800 FM
Oscar 16 26 Jul 03:12:53 03:18:05 88° 285° (WNW) 03:23:15 437.025 USB, Beacon 2401.1428
ITAMSAT 1 26 Jul 03:26:43 03:31:50 55° 101° (E) 03:36:53 435.822 SSB
TMSAT-1 26 Jul 03:27:21 03:30:52 18° 91° (E) 03:34:21 436.925 FM
AO-Echo 26 Jul 03:28:25 03:33:31 61° 101° (E) 03:38:25 ?
OPAL 26 Jul 03:30:52 03:35:00 27° 63° (ENE) 03:39:08 ?
AO-27 26 Jul 03:44:59 03:50:12 83° 104° (ESE) 03:55:23 436.795 MHz FM
Uribyol 2 26 Jul 03:47:01 03:52:13 89° 106° (ESE) 03:57:23 436.500 FM
Gurwin Techsat 1B 26 Jul 03:48:30 03:53:26 38° 97° (E) 03:58:20 435.225 FM
Sapphire 26 Jul 04:00:42 04:04:52 22° 317° (NW) 04:09:04 437.095 MHz 1200 baud AX-25 AFSK
AO-7 26 Jul 04:02:05 04:04:51 12° 85° (E) 04:07:36 29.400 - 29.500 MHz
JAS-1B 26 Jul 04:18:54 04:28:38 84° 104° (ESE) 04:36:59 435.800 - 435.900 CW/SSB
Oscar 19 26 Jul 04:25:18 04:29:13 22° 297° (WNW) 04:33:08 437.125 CW, 437.150 USB
ISS 26 Jul 04:34:41 04:37:08 19° 357° (N) 04:39:36 145.800 FM
PCSat 26 Jul 04:36:42 04:39:20 14° 325° (NW) 04:41:58 145.825 MHz
Oscar 16 26 Jul 04:54:30 04:56:39 13° 302° (WNW) 04:58:49 437.025 USB, Beacon 2401.1428
TMSAT-1 26 Jul 05:05:58 05:11:12 61° 288° (WNW) 05:16:23 436.925 FM
ITAMSAT 1 26 Jul 05:07:10 05:10:54 20° 298° (WNW) 05:14:37 435.822 SSB
AO-Echo 26 Jul 05:08:21 05:11:45 18° 299° (WNW) 05:15:05 ?
OPAL 26 Jul 05:09:09 05:13:44 37° 260° (W) 05:18:20 ?
Uosat F 26 Jul 05:22:29 05:27:19 46° 99° (E) 05:32:07 435.120 FM
AO-27 26 Jul 05:26:21 05:29:01 14° 302° (WNW) 05:31:41 436.795 MHz FM
Lituanica SAT-1 26 Jul 05:27:26 05:29:20 32° 28° (NNE) 05:31:13 437.275 MHz beacon
Uribyol 2 26 Jul 05:28:38 05:30:56 13° 302° (WNW) 05:33:15 436.500 FM
Gurwin Techsat 1B 26 Jul 05:28:43 05:33:16 30° 294° (WNW) 05:37:48 435.225 FM
STRAND 1 26 Jul 05:50:09 05:52:56 15° 59° (ENE) 05:55:42 ?
AO-7 26 Jul 05:50:50 05:59:10 67° 105° (ESE) 06:07:24 29.400 - 29.500 MHz
MaSat-1 26 Jul 06:04:52 06:06:20 11° 38° (NE) 06:07:47 437.345 MHz
JAS-1B 26 Jul 06:10:20 06:17:55 28° 306° (NW) 06:24:53 435.800 - 435.900 CW/SSB
ISS 26 Jul 06:11:45 06:14:39 26° 17° (NNE) 06:17:34 145.800 FM
JAS-2 26 Jul 06:18:29 06:21:01 13° 84° (E) 06:23:27 435.800 - 435.900 CW/SSB, 435.910 FM
KITSAT 1 26 Jul 06:34:31 06:41:19 31° 107° (ESE) 06:48:06 435.175 FM
Hamsat 26 Jul 06:42:10 06:45:40 24° 94° (E) 06:49:10 145.90 MHz
Lituanica SAT-1 26 Jul 07:00:33 07:01:35 13° 224° (SW) 07:02:37 437.275 MHz beacon
Uosat F 26 Jul 07:01:56 07:05:49 23° 297° (WNW) 07:09:40 435.120 FM
STRAND 1 26 Jul 07:26:18 07:31:27 80° 256° (WSW) 07:36:38 ?
MaSat-1 26 Jul 07:39:43 07:44:56 52° 58° (ENE) 07:49:57 437.345 MHz
AO-7 26 Jul 07:44:23 07:51:22 31° 305° (NW) 07:58:19 29.400 - 29.500 MHz
SO-67 26 Jul 07:46:38 07:48:55 16° 93° (E) 07:51:12 435.3500 MHz FM
ISS 26 Jul 07:48:16 07:51:38 70° 216° (SW) 07:54:58 145.800 FM
JAS-2 26 Jul 08:00:57 08:07:11 86° 285° (WNW) 08:12:41 435.800 - 435.900 CW/SSB, 435.910 FM
Hamsat 26 Jul 08:17:52 08:21:39 31° 290° (WNW) 08:25:27 145.90 MHz
